Vertical_Velocity
-2 -1 -3 -0 1 -0 -3 2 2 -0 -4 -0 0 -1 -1 0 1 1 2 2 2 1 0 -0 -0 0 0 -1 -3 -4 -6 -7 -7 -8 -9 -9 -9 -9 -8 -7 -6 -5 -4 -4 -4 -4 -4 -4 -4 -4 -3 -3 -3 -3 -3 -3 -2 -2 -2 -2 -1 -1 -1 -1 -1 -1 -0 -0 -0 -1 -1 -1 -1 -2 -2 -2 -2 -2 -2 -2 -3 -3 -3 -3 -3 -3
-3 -3 -2 -1 0 -0 -4 -1 2 2 -3 -3 -3 -1 -0 -0 1 1 2 1 1 1 2 0 -1 -1 -1 -2 -3 -5 -6 -7 -8 -8 -9 -9 -9 -8 -7 -6 -5 -4 -4 -3 -3 -3 -4 -4 -4 -4 -3 -3 -3 -3 -3 -3 -2 -2 -2 -1 -1 -1 -1 -1 -0 -0 -0 -0 -0 -1 -1 -1 -2 -2 -3 -3 -3 -3 -3 -3 -3 -3 -2 -2 -2 -2
-3 -4 -3 -1 -0 0 -0 -2 -2 -1 -0 -3 -4 -3 0 -0 0 1 2 1 -0 -1 -0 0 -0 -1 -3 -4 -4 -5 -6 -7 -8 -8 -8 -8 -8 -7 -6 -5 -4 -4 -3 -3 -3 -3 -3 -3 -3 -3 -3 -3 -3 -3 -3 -2 -2 -2 -2 -1 -1 -1 -0 -0 -0 -0 -0 -0 -0 -1 -1 -2 -3 -4 -4 -4 -4 -4 -3 -3 -2 -2 -1 -1 -1 -1
-1 -4 -4 -1 -1 -1 2 1 -2 -4 -3 -3 -4 -3 -1 -0 -0 -0 0 1 1 -0 -2 -2 -1 -1 -2 -4 -6 -6 -7 -7 -8 -8 -7 -7 -7 -6 -5 -4 -4 -3 -3 -2 -3 -3 -3 -3 -3 -3 -3 -3 -3 -3 -2 -2 -2 -2 -2 -1 -1 -0 -0 0 0 0 0 0 -0 -1 -2 -3 -4 -4 -4 -4 -3 -3 -2 -2 -1 -1 -0 -0 0 0
-0 -2 -4 -1 -1 -2 -1 0 -1 -3 -6 -5 -3 -2 -2 -1 -1 -1 -2 -1 1 1 -1 -3 -2 -2 -3 -4 -6 -7 -7 -8 -7 -6 -6 -6 -6 -5 -4 -3 -3 -2 -2 -2 -2 -3 -3 -3 -3 -3 -3 -3 -3 -3 -2 -2 -2 -2 -1 -1 -0 0 1 1 1 1 1 0 -0 -2 -3 -4 -4 -4 -4 -3 -2 -2 -1 -1 -1 -0 0 0 0 0
-0 -0 -2 -2 -1 0 -0 -3 -4 -4 -6 -7 -5 -2 0 0 -0 -1 -3 -3 -2 -1 -2 -3 -2 -2 -3 -5 -6 -6 -6 -7 -6 -5 -4 -4 -4 -4 -3 -2 -2 -2 -2 -2 -2 -2 -2 -2 -2 -2 -2 -3 -3 -2 -2 -2 -2 -1 -1 -0 0 1 1 2 2 2 1 0 -1 -2 -4 -4 -4 -3 -3 -2 -2 -1 -1 -1 -0 -0 -0 -0 -0 -0
-4 -2 1 -2 -3 -3 1 -0 -3 -5 -6 -7 -6 -4 -2 -0 1 2 1 -2 -3 -3 -2 -3 -3 -2 -2 -6 -7 -7 -5 -5 -5 -5 -3 -3 -3 -3 -2 -2 -1 -1 -1 -2 -2 -2 -2 -2 -2 -3 -3 -3 -3 -3 -2 -2 -2 -1 -1 -0 1 1 2 3 3 2 1 -0 -1 -3 -3 -3 -3 -3 -2 -2 -1 -1 -1 -1 -1 -1 -0 -0 -1 -1
-5 -6 -2 -0 -2 -5 -6 -4 -2 -2 -4 -5 -5 -4 -4 -5 -4 -1 3 2 -1 -4 -3 -3 -3 -2 -0 -4 -8 -9 -6 -2 -2 -3 -3 -2 -1 -1 -2 -2 -2 -1 -1 -2 -2 -3 -3 -3 -3 -3 -3 -3 -3 -3 -3 -2 -2 -1 -1 0 1 2 3 3 3 2 1 -0 -1 -2 -3 -2 -2 -2 -1 -1 -1 -1 -1 -1 -1 -1 -1 -1 -1 -1
-1 -3 -6 -3 0 2 -3 -8 -8 -6 -3 -4 -3 -2 -0 -3 -7 -9 -6 -0 -0 -2 -3 -2 -1 -1 -0 -0 -5 -9 -11 -3 1 1 -3 -3 -2 -0 -0 -1 -2 -1 -1 -2 -2 -3 -3 -4 -4 -4 -3 -3 -3 -3 -3 -3 -2 -2 -0 1 2 3 3 3 3 2 0 -1 -1 -2 -2 -2 -1 -1 -1 -1 -0 -1 -1 -1 -1 -1 -1 -2 -2 -2
-2 0 -0 -4 -3 1 4 0 -4 -7 -6 -6 -6 -6 -0 4 2 -4 -9 -5 -2 -1 -4 -2 -0 0 -3 1 1 -3 -10 -8 -2 3 1 -4 -4 -1 -0 -0 -0 -0 -1 -1 -2 -2 -4 -4 -4 -4 -4 -3 -3 -3 -3 -3 -3 -2 -1 1 2 3 3 3 3 1 0 -1 -2 -2 -2 -1 -0 -0 -0 -0 -0 -1 -1 -1 -1 -1 -1 -2 -2 -2
-3 -2 -0 -1 -3 -3 -1 0 0 -0 -1 -2 -6 -11 -13 -5 1 3 -2 -3 -1 1 -3 -1 2 2 -5 -5 -1 2 -0 -6 -5 -0 3 -1 -3 -4 -4 -2 -0 0 -1 -1 -1 -2 -4 -4 -4 -4 -3 -3 -3 -3 -4 -3 -3 -2 -0 1 2 3 4 3 3 1 -0 -1 -2 -2 -1 -1 -0 0 -0 -0 -0 -0 -0 -0 -1 -1 -1 -1 -1 -2
0 -0 -1 -1 -1 -1 -3 -4 -5 -5 -3 -0 -1 -5 -13 -13 -8 -3 -2 -2 0 2 -0 1 5 7 1 -7 -7 -2 3 -1 -2 -1 2 1 -1 -3 -5 -3 -1 -0 -2 -2 -2 -3 -5 -5 -4 -3 -3 -4 -4 -4 -4 -4 -3 -2 -0 1 3 4 4 3 2 1 -0 -1 -2 -2 -1 -0 -0 0 0 -0 -0 -0 -0 -0 -0 -0 -0 -0 -1 -1
-1 -1 -1 -1 -1 -1 -2 -3 -4 -7 -9 -6 -3 -1 -3 -6 -7 -6 -5 -4 -0 2 -1 -2 3 8 8 -0 -6 -7 -5 -3 -0 2 3 3 1 -2 -5 -3 -0 1 -2 -2 -2 -3 -6 -6 -5 -4 -4 -5 -5 -5 -5 -4 -3 -2 -0 1 3 4 4 3 2 1 -0 -1 -2 -2 -1 -0 -0 0 0 0 0 0 0 1 1 1 1 1 1 0
-1 -3 -4 -4 -5 -5 -5 -4 -4 -6 -8 -6 -5 -4 -4 -2 -2 -3 -6 -5 -0 3 1 -3 1 6 8 2 -4 -8 -8 -6 -2 2 5 5 2 -2 -7 -3 1 3 -1 -2 -2 -3 -6 -6 -5 -4 -5 -6 -6 -6 -6 -5 -4 -2 -1 1 2 3 3 3 2 1 -1 -1 -1 -1 -1 -0 0 0 0 0 1 1 1 1 1 2 1 1 1 1
-1 -2 -3 -5 -6 -7 -7 -5 -5 -7 -10 -6 -5 -4 -6 -5 -2 0 -3 -6 -3 1 1 -1 1 6 10 4 -4 -12 -14 -8 -2 2 4 6 4 -0 -7 -4 1 4 2 -1 -2 -3 -4 -4 -4 -4 -5 -6 -7 -7 -6 -6 -4 -3 -1 0 2 2 3 2 1 -0 -1 -1 -1 -1 -0 0 0 0 0 0 1 1 1 1 2 2 1 1 1 1
-1 -2 -3 -4 -5 -6 -7 -5 -5 -5 -8 -7 -4 -2 -2 -6 -4 -0 1 -4 -4 -2 -1 -2 0 5 13 13 4 -10 -20 -15 -5 4 6 7 6 1 -6 -5 0 5 4 0 -2 -3 -3 -3 -3 -4 -4 -6 -6 -7 -6 -6 -4 -3 -1 0 1 2 1 1 0 -0 -1 -1 -1 -0 0 0 0 -0 -0 0 0 1 1 1 1 1 1 1 1 1
-2 -2 -4 -6 -5 -4 -5 -7 -7 -5 -4 -5 -4 -2 0 -3 -4 -4 -3 -2 -3 -3 -2 -0 -1 -0 5 13 12 2 -13 -17 -10 1 7 8 6 1 -6 -5 -0 4 5 2 -1 -3 -2 -1 -2 -3 -5 -6 -6 -6 -6 -5 -4 -3 -1 0 1 1 1 0 -0 -1 -2 -2 -1 -0 0 0 -0 -0 -0 -0 0 1 1 1 1 1 1 1 1 1
-5 -5 -5 -6 -6 -4 -1 -5 -8 -7 -4 -2 -3 -3 -2 -0 -1 -3 -5 -3 -3 -4 -4 -1 0 0 -0 3 6 5 -3 -12 -9 -1 8 9 7 2 -5 -5 -2 3 5 2 -0 -2 -1 -0 -1 -3 -4 -5 -5 -5 -5 -4 -4 -2 -1 1 1 1 1 0 -0 -1 -2 -2 -1 -1 -0 -0 -0 -0 -0 -0 0 1 1 0 0 0 0 0 1 1
-4 -5 -5 -6 -7 -5 -0 -2 -5 -8 -7 -4 -2 -2 -5 -2 -0 -0 -3 -3 -3 -4 -3 -3 -1 1 1 -1 -1 -1 -4 -9 -7 -1 6 10 10 5 -3 -4 -2 1 4 2 0 -1 0 0 -1 -3 -5 -5 -5 -4 -4 -4 -3 -2 -0 1 1 1 1 0 -1 -1 -2 -2 -2 -1 -1 -1 -1 -1 -0 -0 0 1 1 0 0 -0 -0 0 0 1
-5 -6 -5 -4 -6 -7 -3 0 -1 -5 -7 -6 -4 -2 -3 -3 -2 -1 -1 -3 -4 -3 -0 -1 -1 -0 1 -1 -1 -3 -6 -9 -7 -2 4 10 10 7 -0 -2 -0 3 5 3 1 -0 1 1 -1 -3 -5 -5 -5 -4 -3 -3 -2 -1 0 1 1 1 1 0 -1 -1 -2 -2 -2 -1 -1 -1 -1 -1 -0 0 0 0 0 -0 -0 -0 -0 0 1 1
-6 -7 -6 -3 -5 -8 -6 -1 -0 -2 -5 -6 -5 -4 -2 -2 -2 -2 -0 -3 -4 -3 -0 0 0 0 0 -0 -1 -2 -6 -8 -7 -3 3 10 11 8 1 -1 0 3 6 4 2 1 1 1 -1 -3 -5 -5 -5 -4 -3 -3 -2 -1 0 1 1 1 0 -0 -1 -1 -2 -2 -2 -2 -1 -1 -1 -0 -0 0 1 1 0 -0 -0 -0 -0 0 0 1
-6 -6 -6 -3 -3 -5 -6 -3 -2 -1 -3 -5 -6 -6 -3 -3 -3 -2 -1 -2 -3 -3 -0 1 1 1 0 -1 -1 -3 -5 -8 -8 -4 1 8 12 10 3 -1 -0 3 6 5 3 2 2 1 -1 -3 -5 -5 -5 -4 -3 -3 -2 -1 -0 1 1 0 -0 -0 -1 -1 -2 -2 -2 -1 -1 -1 -0 -0 0 1 1 1 0 -0 -0 -1 -0 -0 0 0
-5 -5 -4 -3 -3 -4 -4 -3 -3 -2 -2 -3 -4 -4 -3 -3 -4 -4 -3 -3 -3 -2 -1 1 2 2 0 -2 -3 -4 -7 -10 -9 -6 -1 5 10 11 5 0 -0 2 5 4 4 3 3 2 -0 -3 -5 -5 -5 -4 -3 -3 -2 -1 -0 1 1 0 -0 -1 -1 -2 -2 -2 -1 -1 -1 -0 -0 0 0 1 1 0 -0 -0 -1 -1 -0 -0 0 0
-3 -3 -2 -2 -2 -3 -3 -3 -3 -3 -2 -2 -2 -2 -2 -2 -2 -3 -4 -4 -5 -4 -2 -1 0 1 0 -2 -3 -5 -8 -12 -12 -9 -4 1 7 9 6 1 -0 2 5 4 3 3 4 4 1 -3 -5 -5 -5 -4 -4 -3 -2 -1 -0 1 1 1 -0 -1 -1 -1 -1 -1 -1 -0 -0 0 0 0 1 1 0 0 -0 -1 -1 -1 -0 -0 0 0
-2 -2 -2 -1 -1 -2 -3 -3 -3 -3 -4 -4 -3 -3 -2 -1 -1 -2 -3 -5 -6 -6 -4 -3 -2 -1 -0 -1 -1 -3 -7 -12 -13 -11 -7 -2 4 7 6 1 -1 1 4 4 4 3 4 4 2 -1 -5 -6 -5 -5 -4 -3 -2 -1 -0 1 1 1 0 -0 -1 -1 -1 -1 -0 -0 0 1 1 1 1 1 0 -0 -1 -1 -1 -0 -0 -0 -0 -0
-3 -3 -2 -2 -2 -2 -3 -3 -4 -4 -5 -5 -5 -4 -3 -2 -1 -1 -2 -4 -5 -6 -5 -3 -2 -1 -0 0 0 -1 -5 -10 -12 -12 -8 -4 1 5 5 1 -1 -0 3 5 4 4 4 5 3 0 -4 -5 -6 -5 -4 -4 -3 -2 -0 0 1 1 1 0 -0 -0 -0 -0 -0 0 1 1 1 1 1 0 -0 -0 -1 -0 -0 -0 -0 -0 -0 -0
-3 -4 -4 -4 -4 -4 -4 -4 -4 -5 -5 -5 -5 -5 -5 -4 -3 -1 -1 -3 -4 -4 -3 -3 -2 -1 1 1 2 0 -4 -8 -11 -11 -8 -4 -1 2 3 1 -0 -0 1 4 5 5 4 5 4 2 -1 -4 -5 -5 -4 -4 -4 -3 -1 -0 0 1 1 0 -0 -0 0 0 0 1 1 1 1 1 1 0 -0 -0 -0 -0 -0 -0 -0 -0 -0 -0
-4 -5 -5 -5 -5 -4 -4 -4 -4 -5 -5 -5 -6 -6 -6 -6 -4 -3 -2 -3 -3 -3 -2 -3 -2 -1 1 3 4 2 -2 -8 -10 -10 -7 -4 -2 0 2 1 0 -0 -0 2 4 6 6 6 5 3 0 -2 -4 -5 -5 -4 -4 -3 -2 -1 -0 0 0 -0 -0 0 0 0 1 1 1 1 1 1 0 -0 -0 -0 0 -0 -0 -1 -1 -0 -0 0
-5 -6 -6 -5 -5 -5 -4 -4 -4 -5 -5 -5 -6 -6 -6 -6 -5 -4 -3 -3 -3 -2 -1 -2 -2 -2 -0 2 5 5 1 -7 -10 -10 -6 -4 -2 -0 1 0 -0 -1 -2 -0 3 7 9 7 5 3 1 -1 -2 -4 -5 -5 -4 -3 -2 -1 -0 -0 -0 -0 -0 1 1 1 1 1 1 1 1 0 0 0 0 0 0 -0 -0 -1 -1 -0 0 1
-5 -5 -5 -5 -5 -5 -5 -4 -4 -4 -4 -5 -5 -5 -5 -5 -5 -4 -4 -3 -2 -2 -1 -1 -1 -1 -1 1 4 6 4 -4 -9 -10 -7 -4 -2 -0 0 1 0 -0 -3 -4 -1 4 10 11 8 3 1 0 -1 -3 -5 -6 -5 -4 -2 -1 -0 -0 -1 -1 -0 1 1 1 1 1 1 0 0 0 0 0 1 1 0 -0 -1 -1 -1 -0 0 1
-2 -3 -3 -3 -3 -4 -4 -4 -4 -4 -4 -4 -4 -4 -4 -4 -4 -4 -3 -3 -2 -2 -2 -1 -1 -1 -1 -0 2 5 6 -0 -6 -9 -7 -5 -2 -0 1 1 1 1 -1 -4 -4 -1 5 12 12 8 2 1 0 -2 -5 -6 -6 -5 -3 -1 -0 -0 -1 -1 -0 1 2 1 1 1 0 -0 -0 -0 0 1 1 1 0 -0 -1 -1 -1 0 1 2
-1 -1 -1 -2 -2 -2 -2 -2 -2 -2 -2 -2 -2 -2 -3 -3 -3 -3 -3 -3 -3 -2 -2 -1 -0 -0 -0 -0 1 2 3 -0 -4 -7 -6 -4 -3 -1 1 1 1 1 0 -2 -4 -4 -2 6 11 12 7 4 2 -0 -4 -6 -6 -6 -4 -2 -1 -0 -1 -1 -0 1 2 1 1 1 0 -0 -0 0 0 0 0 0 -0 -0 -1 -1 -1 0 1 2
-1 -1 -1 -1 -1 -1 -1 -1 -1 -0 -0 -0 -0 -1 -1 -2 -2 -3 -3 -3 -3 -3 -2 -2 -1 -0 0 1 1 2 2 -1 -4 -6 -5 -4 -3 -1 1 1 1 1 1 0 -1 -3 -4 0 5 8 9 7 4 1 -3 -5 -6 -6 -5 -3 -1 -0 -0 -0 0 1 1 1 1 0 -0 -0 -0 0 0 0 0 -0 -0 -0 -1 -1 -0 0 1 1
-1 -2 -2 -1 -1 -0 -0 -0 -0 -0 -0 -0 -0 -0 -1 -1 -1 -2 -3 -3 -3 -3 -3 -2 -2 -1 -1 -0 1 2 3 -1 -4 -6 -6 -5 -4 -2 0 1 1 0 -0 1 0 -1 -2 -0 2 4 6 8 6 3 -2 -4 -5 -6 -6 -4 -2 -0 1 1 1 1 1 1 1 1 -0 -0 -0 0 0 -0 -0 -0 -0 -0 -0 -0 -0 -0 -0 -0
-2 -2 -2 -2 -1 -0 -0 -0 -0 -0 -0 -1 -1 -1 -1 -1 -1 -1 -2 -2 -3 -3 -3 -2 -2 -2 -2 -2 -1 1 3 1 -2 -4 -5 -5 -4 -3 -1 1 0 -1 -2 -0 -0 -0 -0 1 2 2 3 6 7 5 1 -3 -5 -6 -6 -5 -3 -0 1 1 1 1 1 1 1 1 0 -0 -0 -0 -0 -0 -0 -0 -0 0 0 -0 -0 -1 -1 -1
-2 -2 -2 -2 -1 -0 -0 -0 -0 -1 -1 -1 -1 -2 -2 -1 -1 -1 -1 -2 -2 -2 -2 -2 -1 -2 -2 -3 -3 -1 0 1 0 -1 -3 -4 -4 -4 -2 -0 -0 -1 -2 -2 -1 -1 -0 1 2 3 2 4 6 6 4 -0 -4 -6 -6 -5 -3 -1 1 1 1 1 2 2 1 1 0 -0 -0 -0 -1 -1 -1 -0 0 1 0 -0 -0 -1 -2 -3
-3 -2 -2 -2 -1 -1 -0 -0 -0 -1 -1 -1 -1 -2 -2 -1 -1 -1 -1 -1 -1 -2 -1 -1 -0 -1 -2 -4 -4 -4 -3 -1 -0 -0 -2 -3 -4 -4 -3 -2 -0 -0 -2 -3 -3 -3 -1 -0 1 3 3 3 4 5 6 3 -1 -4 -6 -6 -4 -1 -0 1 1 2 2 2 1 0 -0 -1 -1 -1 -1 -0 -0 0 1 1 0 -0 -1 -2 -4 -4
-3 -2 -2 -2 -2 -1 -1 -1 -1 -1 -1 -1 -1 -1 -1 -0 -0 -0 -0 -1 -1 -1 -1 0 1 1 -1 -3 -5 -6 -5 -3 -2 -2 -2 -3 -4 -4 -4 -3 -1 -0 -1 -2 -3 -4 -3 -2 -1 1 3 4 4 5 4 3 1 -2 -4 -4 -3 -2 -2 -0 1 1 2 1 1 0 -1 -1 -1 -1 -0 0 0 1 1 0 -0 -2 -3 -4 -5 -5
-2 -2 -2 -2 -2 -2 -1 -1 -1 -0 -0 -0 -1 -1 -0 -0 0 0 -0 -1 -1 -1 -0 1 2 2 1 -1 -4 -5 -5 -5 -4 -3 -3 -4 -4 -5 -4 -4 -2 -1 -0 -1 -2 -3 -4 -3 -2 -1 0 2 4 5 5 2 0 -1 -1 -2 -3 -4 -4 -1 -0 1 1 1 1 0 -1 -1 -1 -0 0 1 1 1 0 -0 -2 -3 -4 -6 -6 -7
-1 -1 -1 -1 -1 -1 -1 -1 -1 -1 -1 -1 -1 -1 -1 -1 -0 0 -0 -1 -1 -2 -1 0 2 3 3 0 -2 -4 -5 -5 -4 -4 -4 -4 -5 -5 -4 -4 -3 -2 -1 -0 -0 -1 -3 -3 -3 -1 -0 0 2 4 5 3 0 -1 -0 0 -1 -3 -5 -3 -2 -0 1 1 0 -0 -1 -1 -0 -0 0 1 1 0 -1 -1 -3 -4 -6 -7 -8 -9
-1 -1 -1 -1 -1 -2 -2 -2 -2 -2 -2 -2 -2 -2 -2 -1 -0 0 1 0 -0 -1 -1 -0 2 3 4 1 -1 -3 -5 -5 -5 -5 -5 -5 -5 -5 -4 -4 -3 -2 -1 -0 0 0 -1 -2 -2 -1 -0 0 1 3 4 3 1 -1 -1 -0 -0 -2 -3 -4 -3 -2 -0 0 -0 -0 -1 -0 0 1 1 1 0 -0 -1 -2 -3 -4 -7 -8 -8 -7
-1 -1 -1 -1 -1 -1 -1 -2 -2 -2 -3 -3 -3 -3 -3 -2 -1 0 1 2 2 1 1 1 2 4 5 4 2 -1 -4 -5 -6 -6 -7 -6 -6 -5 -4 -3 -3 -2 -1 -0 0 1 1 -0 -1 -1 -1 0 1 2 4 3 1 -0 -1 -1 -1 -1 -1 -4 -5 -4 -1 -0 -0 -0 -0 0 1 1 1 1 -0 -1 -2 -3 -4 -5 -6 -6 -6 -4
-1 -1 -1 -1 -0 -0 -0 -1 -2 -2 -3 -3 -3 -3 -3 -2 -1 -0 1 1 2 2 2 2 3 4 5 6 5 3 1 -2 -5 -7 -8 -8 -6 -4 -3 -2 -1 -1 -1 -1 -0 1 2 1 0 -1 -1 0 1 2 2 3 2 0 -2 -3 -2 -0 0 -3 -5 -4 -2 -1 -0 -0 -0 -0 0 1 1 0 -0 -1 -3 -4 -4 -4 -3 -2 -1 -0
-0 -0 -1 -1 -1 -1 -1 -1 -1 -1 -1 -1 -1 -1 -2 -1 -1 -1 -0 0 1 1 1 1 1 2 4 4 5 5 5 2 -1 -4 -7 -8 -7 -5 -3 -2 -1 -0 -0 -1 -1 -1 1 2 2 1 0 0 1 1 1 2 2 0 -2 -2 -2 -1 -0 -2 -4 -4 -3 -2 -1 -1 -2 -2 -1 -0 0 0 -0 -1 -2 -2 -1 -1 -1 -1 -0 0
-0 -0 -0 -0 -1 -1 -1 -0 -0 -0 -0 -0 -0 -0 -0 -0 -0 -0 -0 -0 0 0 0 -0 -0 0 1 2 3 4 6 6 3 -0 -4 -6 -6 -5 -3 -2 -1 -1 -1 -1 -1 -1 -1 1 1 2 3 2 1 1 1 1 1 1 -0 -1 -1 -1 -1 -2 -3 -3 -3 -3 -3 -3 -4 -4 -2 -1 -0 0 0 1 1 1 1 1 -0 -1 -1 -1
-1 0 0 0 0 0 1 0 1 1 1 1 1 0 0 -0 -0 -0 -0 -0 -0 -0 -0 -1 -1 -1 -1 -1 1 2 4 5 5 3 1 -2 -3 -3 -3 -2 -2 -1 -1 -1 -1 -1 -1 -0 0 1 3 3 2 1 -0 -0 0 1 1 -0 -1 -1 -1 -2 -3 -3 -3 -3 -4 -4 -5 -4 -3 -2 0 2 4 4 4 3 1 -0 -2 -2 -2 -1
0 1 1 1 1 1 1 1 1 2 2 2 1 1 -0 -0 -0 -0 -0 -0 -0 -1 -1 -1 -1 -1 -2 -2 -2 -1 1 3 4 4 4 2 1 1 -0 -1 -2 -2 -2 -2 -2 -2 -2 -1 -1 -0 1 2 2 2 1 -0 0 1 1 0 -0 -1 -1 -2 -2 -3 -2 -2 -2 -3 -4 -3 -2 -0 2 4 6 7 5 2 -0 -2 -3 -3 -2 -0
1 1 2 2 2 1 1 1 2 3 3 3 2 1 -0 -1 -1 -1 -1 -1 -1 -1 -1 -1 -1 -0 -1 -1 -1 -2 -1 -0 1 2 3 3 3 3 2 1 -0 -1 -2 -3 -3 -3 -3 -2 -2 -1 -0 1 2 2 2 1 0 0 1 0 -0 -1 -1 -2 -2 -2 -1 -0 -1 -1 -1 -0 1 2 3 6 7 7 6 2 -2 -4 -6 -4 -2 1
1 1 1 1 2 2 2 2 2 3 3 3 2 1 -0 -1 -2 -2 -2 -2 -1 -1 -1 -1 -1 -0 -0 -0 -0 -1 -1 -1 -0 0 1 2 2 3 3 2 1 1 -0 -1 -2 -3 -3 -3 -3 -3 -1 1 1 2 2 1 1 0 0 0 -0 -0 -0 -1 -1 -1 0 0 0 0 1 1 1 1 3 5 7 8 7 3 -1 -5 -7 -5 -2 1
-0 -0 0 1 1 2 2 2 2 2 1 1 1 0 -0 -1 -1 -2 -2 -2 -2 -1 -1 -2 -2 -1 -0 -0 0 -0 -1 -1 -1 -0 0 0 1 1 2 1 1 2 2 1 0 -1 -2 -3 -4 -4 -3 0 2 2 2 1 1 0 -0 -0 -0 0 1 1 1 1 1 1 1 1 1 -0 -1 -1 0 3 6 8 8 5 0 -4 -7 -5 -2 0
-0 -0 -0 1 1 1 1 1 1 0 -0 -0 -0 -1 -1 -1 -1 -1 -1 -1 -1 -1 -1 -1 -2 -2 -2 -1 -0 -0 -1 -1 -1 -1 -0 0 0 0 0 0 1 1 2 3 2 1 1 -0 -2 -4 -4 -2 1 2 2 1 1 0 0 -0 -0 0 2 2 3 3 3 3 2 1 0 -1 -2 -3 -1 1 4 6 8 6 2 -2 -6 -5 -3 -1
Height
5594 5592 5589 5587 5585 5583 5580 5577 5575 5572 5569 5566 5564 5562 5559 5556 5553 5550 5547 5544 5541 5537 5534 5530 5527 5523 5519 5515 5511 5507 5503 5500 5496 5493 5490 5486 5483 5480 5477 5473 5470 5467 5464 5461 5458 5455 5452 5449 5447 5445 5443 5441 5438 5437 5435 5433 5432 5430 5429 5427 5425 5424 5423 5421 5420 5419 5418 5417 5416 5415 5415 5414 5414 5413 5413 5413 5413 5413 5412 5412 5412 5412 5412 5412 5412 5413
5588 5586 5583 5581 5579 5577 5573 5570 5568 5565 5562 5559 5557 5555 5552 5549 5546 5543 5540 5537 5533 5529 5525 5522 5518 5514 5510 5506 5501 5497 5493 5489 5486 5482 5479 5475 5472 5468 5465 5462 5459 5456 5453 5450 5448 5445 5443 5440 5438 5436 5434 5433 5431 5429 5428 5426 5425 5424 5423 5421 5419 5418 5417 5416 5415 5414 5413 5413 5412 5411 5410 5410 5409 5409 5409 5408 5408 5408 5408 5408 5408 5408 5408 5408 5408 5408
5583 5580 5578 5575 5573 5570 5567 5564 5561 5558 5555 5552 5549 5547 5544 5542 5539 5535 5532 5529 5525 5521 5517 5513 5509 5504 5500 5495 5491 5487 5483 5479 5475 5471 5468 5465 5461 5458 5455 5452 5449 5446 5443 5441 5438 5436 5434 5432 5430 5429 5427 5426 5424 5423 5422 5420 5419 5418 5417 5416 5414 5413 5412 5411 5411 5410 5409 5408 5408 5407 5407 5406 5405 5405 5405 5404 5404 5404 5404 5403 5403 5403 5403 5403 5404 5404
5577 5574 5571 5569 5566 5564 5561 5557 5554 5550 5547 5545 5542 5539 5537 5534 5531 5527 5524 5520 5517 5512 5508 5503 5499 5495 5490 5485 5480 5476 5473 5469 5465 5461 5458 5455 5451 5448 5445 5443 5440 5438 5435 5433 5431 5429 5427 5426 5424 5423 5421 5420 5418 5418 5416 5415 5414 5413 5412 5411 5410 5409 5408 5408 5407 5406 5406 5405 5404 5403 5403 5402 5401 5401 5401 5400 5400 5400 5399 5399 5399 5399 5400 5400 5400 5400
5571 5568 5565 5562 5560 5557 5553 5550 5546 5543 5539 5537 5534 5532 5529 5525 5522 5519 5515 5512 5508 5503 5499 5494 5489 5485 5480 5475 5470 5466 5463 5459 5456 5452 5449 5446 5443 5440 5437 5435 5433 5430 5428 5426 5424 5423 5421 5420 5418 5417 5416 5415 5414 5413 5412 5411 5410 5408 5408 5407 5406 5405 5405 5404 5403 5403 5402 5401 5400 5399 5399 5398 5398 5397 5397 5396 5396 5396 5396 5396 5396 5396 5396 5396 5396 5397
5565 5562 5558 5555 5552 5549 5546 5542 5538 5535 5532 5529 5526 5524 5521 5518 5514 5510 5507 5502 5498 5494 5490 5485 5480 5475 5470 5465 5460 5457 5453 5450 5447 5444 5441 5438 5435 5433 5430 5428 5426 5424 5422 5421 5419 5418 5416 5415 5413 5413 5411 5410 5409 5408 5407 5406 5405 5404 5404 5403 5403 5402 5401 5401 5400 5399 5398 5398 5397 5396 5395 5394 5394 5393 5393 5393 5393 5393 5392 5392 5393 5393 5393 5393 5393 5393
5558 5555 5552 5548 5544 5541 5538 5535 5531 5527 5524 5521 5519 5516 5513 5510 5506 5502 5498 5493 5488 5484 5480 5476 5471 5465 5460 5456 5451 5448 5445 5442 5439 5437 5433 5431 5428 5426 5424 5422 5420 5418 5417 5415 5414 5413 5412 5410 5409 5408 5407 5406 5405 5404 5403 5402 5401 5400 5400 5399 5399 5398 5398 5397 5397 5396 5395 5394 5393 5392 5392 5391 5391 5390 5390 5390 5389 5389 5389 5389 5389 5389 5390 5390 5390 5390
5551 5548 5544 5542 5538 5534 5530 5527 5523 5520 5516 5513 5510 5508 5505 5502 5498 5493 5490 5485 5479 5474 5470 5467 5462 5457 5451 5447 5443 5440 5437 5434 5432 5430 5428 5425 5422 5420 5418 5417 5415 5413 5412 5411 5410 5408 5407 5406 5405 5404 5403 5402 5401 5400 5399 5398 5397 5396 5396 5395 5395 5394 5394 5393 5393 5392 5391 5391 5390 5389 5388 5388 5388 5387 5387 5387 5387 5386 5386 5386 5386 5387 5387 5387 5387 5387
5544 5541 5538 5534 5531 5528 5524 5520 5516 5512 5509 5505 5502 5499 5496 5493 5489 5485 5480 5476 5471 5466 5462 5458 5454 5449 5443 5438 5435 5433 5431 5428 5426 5424 5422 5420 5417 5415 5413 5412 5411 5409 5408 5407 5405 5404 5403 5402 5400 5399 5398 5398 5396 5395 5394 5394 5393 5392 5392 5391 5391 5391 5390 5390 5389 5389 5388 5387 5386 5385 5385 5385 5385 5384 5384 5384 5383 5383 5383 5383 5383 5383 5384 5384 5384 5384
5538 5534 5531 5527 5524 5521 5518 5513 5509 5504 5501 5497 5493 5489 5487 5484 5481 5476 5472 5467 5463 5458 5454 5450 5447 5443 5438 5432 5428 5425 5425 5423 5421 5419 5417 5415 5413 5411 5409 5408 5407 5406 5404 5403 5401 5400 5398 5398 5396 5395 5394 5393 5392 5391 5390 5389 5389 5388 5388 5388 5387 5387 5387 5386 5386 5385 5384 5383 5383 5382 5382 5382 5382 5381 5381 5381 5381 5381 5380 5380 5380 5380 5380 5380 5381 5381
5531 5528 5524 5521 5517 5513 5509 5506 5502 5498 5493 5490 5486 5481 5476 5473 5471 5468 5464 5460 5455 5451 5447 5443 5439 5435 5432 5428 5423 5419 5418 5418 5417 5415 5412 5410 5408 5406 5405 5404 5403 5402 5400 5399 5397 5395 5394 5393 5392 5391 5390 5389 5388 5387 5386 5385 5384 5384 5384 5383 5383 5383 5383 5383 5382 5381 5381 5380 5379 5379 5378 5378 5378 5378 5378 5378 5378 5378 5378 5377 5377 5378 5377 5377 5378 5378
5524 5521 5517 5513 5510 5506 5502 5498 5494 5490 5486 5483 5478 5474 5468 5463 5460 5458 5456 5452 5448 5444 5441 5438 5433 5428 5425 5422 5419 5416 5414 5414 5413 5412 5409 5406 5403 5402 5401 5400 5399 5398 5396 5395 5393 5391 5390 5389 5388 5387 5385 5384 5383 5382 5382 5381 5380 5380 5380 5380 5380 5380 5379 5379 5378 5378 5377 5376 5376 5375 5375 5375 5375 5375 5375 5374 5374 5374 5374 5374 5374 5374 5374 5374 5374 5374
5517 5513 5509 5506 5502 5498 5494 5490 5486 5482 5477 5473 5470 5466 5461 5456 5452 5449 5447 5444 5440 5437 5435 5433 5429 5423 5419 5415 5413 5411 5410 5410 5409 5408 5406 5403 5399 5397 5397 5396 5395 5393 5392 5390 5388 5387 5386 5384 5383 5382 5381 5380 5379 5378 5377 5376 5376 5376 5375 5376 5376 5376 5376 5375 5375 5374 5373 5373 5372 5372 5372 5371 5371 5371 5371 5371 5371 5371 5371 5371 5371 5371 5371 5371 5371 5371
5510 5506 5502 5498 5494 5490 5486 5481 5477 5473 5468 5464 5460 5457 5453 5449 5444 5441 5439 5436 5433 5430 5428 5427 5425 5420 5415 5410 5407 5406 5406 5406 5406 5405 5403 5399 5395 5393 5393 5393 5391 5389 5388 5386 5384 5382 5381 5380 5379 5378 5377 5375 5374 5373 5373 5372 5372 5371 5371 5371 5372 5372 5372 5371 5371 5370 5369 5369 5368 5368 5368 5368 5368 5367 5367 5367 5368 5368 5368 5368 5368 5368 5368 5368 5368 5368
5502 5498 5494 5490 5485 5481 5477 5473 5468 5464 5459 5455 5452 5449 5445 5441 5438 5434 5432 5430 5427 5424 5423 5421 5419 5416 5411 5406 5403 5401 5401 5401 5401 5401 5399 5396 5392 5389 5389 5388 5387 5385 5384 5382 5380 5378 5377 5376 5375 5373 5372 5371 5370 5369 5368 5368 5367 5367 5367 5367 5368 5368 5368 5367 5367 5366 5365 5365 5364 5364 5364 5364 5364 5364 5363 5363 5364 5364 5364 5364 5364 5364 5364 5364 5364 5364
5495 5490 5486 5481 5477 5473 5468 5463 5459 5455 5451 5448 5444 5441 5438 5435 5432 5428 5426 5424 5422 5419 5418 5416 5414 5412 5408 5402 5398 5396 5397 5397 5396 5396 5395 5392 5388 5384 5384 5384 5383 5382 5380 5378 5376 5374 5373 5372 5371 5369 5368 5367 5366 5365 5364 5364 5363 5363 5363 5363 5363 5363 5363 5363 5363 5362 5361 5361 5361 5361 5361 5360 5360 5360 5360 5360 5360 5360 5361 5361 5361 5361 5361 5361 5361 5361
5487 5483 5478 5473 5469 5464 5460 5455 5451 5447 5443 5441 5438 5434 5432 5429 5426 5423 5421 5418 5416 5414 5412 5410 5409 5408 5405 5400 5394 5391 5391 5392 5392 5391 5390 5388 5384 5380 5379 5379 5379 5378 5376 5374 5372 5370 5369 5368 5367 5365 5364 5363 5362 5361 5360 5360 5359 5359 5359 5359 5359 5359 5359 5359 5359 5358 5358 5357 5357 5357 5357 5357 5357 5357 5357 5357 5357 5357 5357 5357 5357 5357 5357 5357 5357 5357
5478 5474 5469 5465 5461 5456 5452 5448 5444 5440 5437 5434 5432 5429 5426 5423 5421 5418 5416 5413 5411 5409 5407 5405 5403 5401 5400 5397 5391 5387 5385 5387 5387 5386 5385 5383 5380 5376 5374 5374 5374 5373 5372 5370 5368 5367 5365 5364 5363 5361 5360 5359 5358 5357 5357 5356 5356 5355 5355 5355 5355 5356 5356 5355 5355 5354 5354 5353 5353 5353 5353 5353 5353 5353 5353 5353 5353 5353 5353 5353 5353 5353 5353 5353 5353 5353
5471 5466 5461 5457 5453 5449 5444 5441 5437 5434 5431 5428 5426 5424 5422 5419 5416 5414 5411 5408 5406 5404 5402 5400 5398 5395 5393 5391 5387 5383 5381 5382 5382 5381 5380 5379 5376 5373 5370 5370 5370 5369 5368 5366 5364 5363 5361 5360 5358 5357 5356 5355 5354 5353 5353 5352 5352 5351 5351 5351 5352 5352 5352 5352 5351 5351 5350 5350 5350 5349 5350 5350 5349 5349 5349 5350 5350 5350 5350 5350 5350 5350 5350 5350 5350 5350
5463 5458 5453 5450 5447 5443 5438 5434 5431 5428 5426 5423 5421 5419 5418 5415 5413 5410 5407 5404 5402 5400 5398 5396 5393 5390 5387 5385 5382 5378 5377 5376 5376 5376 5376 5375 5372 5369 5367 5366 5365 5365 5364 5362 5360 5359 5358 5356 5354 5353 5352 5351 5350 5349 5349 5348 5348 5348 5348 5348 5348 5348 5348 5348 5347 5347 5346 5346 5346 5346 5346 5346 5346 5346 5346 5346 5346 5346 5346 5346 5346 5346 5347 5347 5347 5347
5456 5450 5445 5442 5440 5438 5434 5430 5426 5423 5421 5419 5417 5414 5412 5410 5408 5405 5402 5400 5398 5395 5393 5391 5388 5385 5383 5380 5377 5374 5372 5371 5371 5371 5371 5370 5368 5365 5363 5362 5361 5361 5360 5358 5356 5355 5354 5352 5350 5349 5348 5346 5346 5345 5345 5344 5344 5343 5343 5343 5343 5343 5344 5343 5343 5343 5343 5342 5342 5342 5342 5342 5342 5342 5342 5343 5343 5343 5343 5343 5343 5343 5343 5343 5343 5343
5449 5444 5440 5436 5433 5431 5429 5426 5422 5419 5416 5414 5413 5410 5408 5406 5403 5401 5398 5396 5394 5392 5389 5387 5384 5381 5378 5375 5372 5369 5367 5366 5366 5366 5366 5365 5364 5362 5359 5358 5357 5357 5356 5354 5353 5351 5350 5348 5347 5345 5343 5342 5342 5341 5340 5340 5339 5339 5339 5339 5339 5339 5339 5339 5339 5339 5338 5338 5338 5338 5338 5338 5338 5338 5339 5339 5339 5339 5339 5339 5339 5339 5340 5340 5340 5340
5442 5438 5435 5431 5428 5426 5423 5421 5418 5415 5412 5410 5408 5406 5404 5402 5399 5397 5394 5392 5390 5387 5385 5383 5380 5376 5373 5370 5367 5364 5362 5360 5360 5360 5360 5360 5360 5358 5356 5354 5353 5353 5352 5351 5349 5348 5347 5345 5343 5341 5339 5338 5338 5337 5336 5336 5335 5335 5335 5335 5335 5335 5335 5335 5335 5335 5334 5334 5334 5334 5334 5334 5335 5335 5335 5335 5335 5335 5336 5336 5336 5336 5336 5336 5336 5336
5436 5433 5430 5427 5424 5422 5419 5417 5414 5412 5409 5407 5404 5402 5400 5398 5396 5393 5390 5387 5385 5383 5380 5378 5375 5372 5369 5366 5363 5360 5357 5355 5355 5355 5355 5355 5355 5354 5352 5350 5349 5348 5348 5347 5346 5344 5343 5342 5340 5337 5336 5334 5333 5333 5332 5331 5331 5331 5331 5331 5331 5331 5331 5331 5331 5331 5330 5330 5330 5330 5331 5331 5331 5331 5331 5331 5332 5332 5332 5332 5333 5333 5333 5333 5333 5333
5432 5429 5426 5423 5421 5418 5415 5413 5410 5408 5405 5403 5401 5399 5396 5394 5391 5388 5384 5382 5380 5378 5376 5374 5371 5368 5366 5363 5360 5356 5353 5351 5350 5350 5350 5350 5350 5349 5348 5346 5345 5344 5344 5343 5342 5341 5340 5338 5336 5334 5332 5330 5329 5328 5328 5327 5327 5327 5327 5327 5327 5327 5327 5327 5327 5327 5326 5326 5326 5327 5327 5327 5327 5327 5328 5328 5328 5328 5329 5329 5329 5329 5329 5330 5330 5330
5428 5425 5423 5420 5417 5414 5412 5409 5406 5403 5401 5398 5396 5394 5392 5389 5386 5383 5381 5378 5376 5374 5372 5369 5367 5365 5362 5360 5357 5353 5350 5347 5346 5346 5346 5346 5346 5345 5344 5342 5341 5340 5340 5339 5338 5337 5336 5335 5333 5331 5328 5327 5325 5324 5324 5323 5323 5322 5322 5323 5323 5323 5323 5323 5323 5323 5323 5322 5323 5323 5323 5323 5323 5324 5324 5324 5325 5325 5325 5326 5326 5326 5326 5326 5327 5327
5423 5421 5418 5416 5413 5410 5408 5405 5402 5399 5396 5393 5391 5388 5387 5384 5382 5380 5377 5375 5372 5370 5368 5366 5364 5362 5359 5357 5354 5351 5348 5345 5343 5343 5343 5343 5342 5341 5340 5339 5338 5337 5336 5336 5335 5334 5333 5332 5330 5328 5326 5323 5322 5321 5320 5319 5318 5318 5318 5318 5318 5318 5318 5318 5318 5318 5318 5318 5318 5319 5319 5319 5320 5320 5320 5321 5321 5322 5322 5322 5323 5323 5323 5323 5323 5324
5420 5417 5414 5412 5409 5406 5403 5400 5397 5394 5392 5389 5386 5384 5382 5380 5378 5376 5373 5371 5369 5367 5364 5363 5361 5358 5357 5355 5352 5349 5345 5342 5340 5339 5340 5339 5338 5338 5337 5335 5334 5333 5332 5332 5332 5331 5330 5328 5326 5324 5323 5321 5319 5317 5316 5315 5314 5314 5314 5314 5314 5314 5314 5314 5314 5315 5315 5315 5315 5315 5315 5316 5316 5317 5317 5318 5318 5318 5319 5319 5319 5320 5320 5320 5321 5321
5416 5413 5410 5408 5405 5402 5399 5396 5393 5390 5387 5385 5382 5379 5377 5375 5373 5372 5369 5367 5366 5363 5361 5359 5357 5355 5353 5352 5349 5347 5343 5339 5337 5337 5337 5336 5335 5334 5333 5332 5331 5329 5328 5328 5328 5328 5327 5325 5323 5321 5319 5318 5316 5314 5312 5311 5310 5310 5310 5310 5310 5310 5310 5310 5311 5311 5311 5311 5311 5312 5312 5312 5313 5313 5314 5314 5315 5315 5316 5316 5316 5317 5317 5318 5318 5318
5413 5410 5407 5404 5401 5398 5395 5392 5389 5386 5383 5381 5378 5375 5373 5371 5369 5367 5365 5363 5362 5360 5358 5356 5354 5352 5350 5348 5347 5344 5341 5337 5335 5334 5334 5333 5332 5331 5331 5329 5328 5326 5325 5324 5323 5324 5324 5323 5321 5318 5316 5315 5313 5311 5308 5307 5306 5306 5306 5306 5307 5307 5306 5307 5307 5307 5307 5308 5308 5308 5308 5309 5309 5310 5311 5311 5312 5312 5313 5313 5313 5313 5314 5314 5315 5315
5410 5407 5404 5401 5398 5394 5392 5389 5386 5383 5380 5377 5374 5372 5369 5367 5365 5363 5361 5359 5358 5356 5354 5352 5350 5348 5347 5345 5343 5341 5338 5335 5332 5331 5331 5330 5329 5328 5328 5326 5324 5323 5322 5320 5320 5319 5320 5320 5318 5316 5313 5312 5310 5308 5305 5303 5303 5302 5302 5303 5303 5303 5303 5303 5303 5303 5304 5304 5304 5305 5305 5306 5306 5307 5308 5308 5309 5309 5310 5310 5310 5311 5311 5312 5312 5313
5408 5405 5402 5398 5395 5392 5389 5386 5383 5380 5377 5374 5371 5369 5366 5363 5361 5359 5357 5355 5354 5352 5350 5349 5347 5345 5343 5342 5340 5338 5335 5333 5330 5328 5328 5327 5326 5326 5325 5323 5322 5320 5319 5318 5316 5315 5315 5315 5315 5314 5312 5310 5307 5305 5302 5300 5299 5298 5298 5299 5299 5299 5299 5299 5299 5300 5300 5301 5301 5302 5302 5303 5303 5304 5305 5305 5306 5307 5307 5307 5308 5308 5308 5309 5309 5310
5406 5402 5399 5396 5393 5389 5386 5383 5380 5378 5374 5372 5369 5366 5363 5360 5358 5356 5353 5351 5350 5348 5347 5345 5343 5341 5340 5338 5336 5334 5332 5329 5327 5325 5325 5324 5323 5323 5322 5320 5318 5317 5316 5315 5313 5312 5311 5311 5310 5310 5309 5308 5305 5303 5300 5298 5296 5295 5294 5295 5296 5296 5296 5296 5296 5297 5297 5298 5298 5299 5299 5300 5300 5301 5302 5303 5303 5304 5304 5304 5305 5305 5305 5306 5306 5307
5403 5400 5397 5394 5391 5388 5384 5381 5378 5375 5372 5369 5366 5363 5360 5358 5355 5352 5350 5348 5346 5344 5343 5341 5339 5338 5336 5334 5333 5331 5329 5326 5324 5322 5321 5321 5320 5319 5318 5317 5315 5314 5313 5312 5310 5309 5308 5307 5306 5306 5305 5304 5303 5300 5298 5295 5293 5292 5291 5291 5292 5293 5293 5293 5293 5294 5294 5295 5295 5296 5296 5297 5298 5298 5299 5300 5300 5301 5301 5302 5302 5302 5302 5303 5303 5303
5401 5398 5395 5392 5389 5385 5382 5379 5376 5373 5369 5366 5363 5360 5358 5355 5352 5349 5347 5344 5342 5340 5339 5337 5336 5334 5333 5331 5329 5328 5326 5323 5321 5319 5318 5317 5317 5316 5315 5313 5312 5311 5309 5308 5307 5306 5304 5303 5303 5302 5301 5300 5299 5298 5295 5293 5290 5289 5288 5288 5289 5290 5290 5291 5291 5291 5292 5292 5293 5293 5293 5294 5295 5295 5296 5297 5298 5298 5299 5299 5299 5299 5299 5299 5300 5300
5399 5396 5393 5390 5387 5383 5380 5377 5374 5370 5367 5364 5361 5358 5355 5352 5349 5346 5344 5341 5339 5337 5335 5333 5332 5330 5328 5327 5325 5324 5322 5320 5318 5316 5315 5314 5313 5312 5311 5310 5309 5308 5306 5304 5303 5302 5301 5300 5299 5298 5297 5296 5296 5295 5293 5290 5288 5286 5285 5285 5286 5287 5287 5288 5288 5288 5289 5289 5290 5290 5291 5291 5292 5293 5294 5294 5295 5296 5296 5296 5296 5296 5296 5296 5296 5296
5397 5393 5390 5388 5385 5382 5378 5375 5372 5368 5365 5361 5358 5355 5352 5349 5346 5343 5341 5338 5336 5334 5332 5330 5328 5326 5324 5323 5321 5320 5318 5317 5315 5313 5312 5310 5310 5309 5308 5307 5306 5304 5303 5301 5299 5299 5298 5297 5295 5295 5294 5293 5292 5291 5290 5288 5286 5284 5283 5283 5283 5283 5284 5285 5285 5286 5286 5287 5287 5288 5288 5289 5290 5291 5291 5292 5293 5293 5293 5293 5293 5293 5293 5293 5293 5292
5394 5391 5388 5385 5382 5379 5376 5373 5369 5366 5363 5359 5356 5353 5349 5347 5344 5341 5338 5336 5333 5331 5329 5328 5326 5323 5321 5319 5318 5316 5315 5313 5312 5310 5309 5308 5306 5305 5305 5303 5303 5301 5300 5298 5296 5295 5294 5293 5292 5291 5290 5290 5289 5288 5287 5285 5284 5283 5281 5280 5280 5281 5282 5282 5283 5283 5284 5284 5285 5286 5286 5287 5288 5288 5289 5290 5290 5290 5291 5291 5290 5290 5290 5289 5289 5288
5392 5389 5386 5383 5380 5377 5373 5370 5367 5363 5360 5356 5353 5350 5347 5344 5341 5338 5335 5333 5330 5328 5327 5325 5323 5321 5319 5317 5315 5313 5311 5310 5308 5307 5306 5304 5303 5302 5301 5300 5299 5298 5297 5295 5294 5292 5291 5289 5288 5288 5287 5286 5286 5285 5284 5283 5281 5280 5279 5279 5279 5279 5279 5279 5280 5281 5281 5282 5283 5283 5284 5285 5286 5286 5287 5288 5288 5288 5288 5288 5287 5287 5286 5286 5285 5284
5390 5387 5383 5380 5377 5374 5370 5367 5363 5360 5357 5353 5350 5347 5344 5341 5338 5335 5333 5330 5328 5326 5324 5322 5320 5318 5317 5314 5312 5310 5308 5307 5306 5304 5303 5301 5300 5299 5298 5297 5296 5295 5293 5292 5291 5289 5288 5286 5285 5284 5284 5283 5282 5282 5281 5280 5278 5278 5277 5277 5277 5277 5277 5277 5278 5278 5279 5280 5281 5282 5283 5283 5284 5284 5285 5285 5285 5285 5285 5285 5284 5283 5283 5282 5281 5281
5388 5384 5381 5378 5374 5371 5367 5364 5360 5357 5353 5350 5347 5343 5341 5338 5335 5333 5330 5328 5325 5323 5321 5320 5318 5316 5314 5312 5310 5308 5306 5304 5303 5301 5300 5298 5297 5296 5295 5294 5293 5292 5291 5289 5288 5287 5285 5283 5282 5281 5280 5280 5279 5279 5278 5277 5276 5276 5275 5275 5275 5275 5275 5275 5276 5276 5277 5278 5279 5280 5281 5282 5282 5283 5283 5283 5283 5283 5282 5282 5281 5280 5279 5278 5278 5277
5385 5382 5379 5375 5372 5368 5364 5361 5357 5354 5350 5347 5343 5340 5337 5335 5332 5330 5328 5325 5323 5321 5319 5317 5316 5314 5313 5311 5308 5306 5303 5301 5300 5298 5297 5296 5294 5293 5292 5291 5290 5288 5288 5287 5285 5284 5283 5281 5280 5278 5278 5277 5277 5276 5276 5275 5274 5273 5273 5273 5273 5274 5274 5274 5274 5274 5275 5277 5278 5278 5279 5280 5280 5281 5281 5281 5280 5280 5279 5279 5278 5277 5276 5275 5275 5274
5383 5380 5376 5373 5369 5366 5362 5358 5355 5351 5347 5344 5340 5337 5334 5331 5329 5327 5325 5323 5321 5319 5317 5315 5313 5312 5311 5309 5307 5305 5302 5299 5297 5295 5294 5293 5292 5290 5289 5288 5287 5286 5285 5284 5283 5281 5280 5279 5278 5276 5275 5275 5274 5274 5273 5273 5272 5272 5272 5272 5272 5273 5273 5272 5273 5273 5274 5275 5276 5277 5277 5278 5278 5279 5278 5278 5278 5277 5276 5276 5275 5274 5273 5273 5272 5271
5381 5378 5374 5370 5367 5363 5359 5356 5352 5348 5345 5341 5338 5334 5331 5328 5326 5323 5322 5320 5318 5316 5314 5312 5311 5309 5308 5307 5305 5303 5301 5298 5296 5293 5292 5290 5289 5288 5287 5286 5285 5283 5282 5281 5280 5278 5278 5277 5276 5274 5273 5273 5272 5272 5271 5271 5271 5270 5270 5270 5271 5271 5271 5271 5271 5272 5273 5273 5274 5275 5275 5276 5276 5276 5276 5276 5275 5274 5274 5273 5272 5272 5271 5270 5269 5268
5379 5375 5372 5368 5364 5361 5358 5354 5350 5346 5343 5339 5335 5332 5328 5325 5323 5321 5319 5317 5315 5313 5311 5309 5308 5307 5305 5304 5303 5301 5300 5298 5295 5293 5290 5288 5287 5285 5284 5283 5282 5281 5280 5279 5278 5276 5275 5274 5273 5273 5272 5271 5271 5270 5269 5269 5269 5269 5269 5269 5269 5269 5270 5270 5270 5271 5271 5272 5273 5273 5273 5273 5274 5274 5273 5273 5273 5272 5272 5271 5270 5269 5268 5267 5266 5265
5377 5373 5370 5366 5363 5359 5356 5352 5348 5344 5340 5337 5333 5329 5326 5323 5320 5318 5316 5314 5312 5310 5308 5307 5305 5304 5302 5301 5300 5299 5298 5296 5294 5292 5289 5287 5285 5284 5283 5281 5280 5279 5278 5277 5275 5274 5273 5272 5271 5271 5270 5270 5269 5269 5268 5268 5268 5268 5268 5268 5268 5268 5268 5269 5269 5269 5270 5270 5271 5271 5271 5271 5271 5271 5271 5271 5270 5270 5269 5268 5267 5266 5265 5264 5263 5262
5375 5372 5368 5365 5361 5358 5353 5350 5346 5342 5338 5335 5331 5327 5323 5320 5318 5315 5313 5311 5309 5308 5306 5304 5303 5301 5300 5298 5297 5296 5295 5293 5292 5291 5289 5287 5285 5283 5282 5280 5279 5278 5276 5275 5274 5273 5272 5271 5270 5269 5269 5268 5268 5268 5267 5267 5267 5267 5267 5267 5267 5267 5267 5267 5268 5268 5269 5269 5269 5269 5269 5269 5269 5269 5269 5269 5268 5268 5267 5265 5264 5263 5262 5261 5260 5259
5373 5370 5367 5363 5359 5356 5352 5348 5344 5340 5337 5333 5329 5325 5321 5318 5315 5313 5311 5309 5307 5305 5303 5302 5301 5299 5298 5296 5295 5294 5293 5291 5290 5289 5288 5286 5285 5283 5282 5280 5278 5277 5276 5274 5273 5272 5271 5269 5269 5268 5268 5268 5267 5267 5266 5266 5266 5266 5266 5266 5266 5266 5266 5266 5267 5267 5268 5268 5268 5268 5268 5268 5267 5267 5267 5267 5266 5265 5264 5263 5261 5260 5259 5258 5258 5257
5372 5368 5365 5361 5358 5354 5350 5346 5342 5338 5334 5331 5327 5323 5320 5317 5313 5311 5309 5307 5305 5303 5302 5300 5298 5297 5296 5294 5293 5292 5291 5289 5288 5287 5286 5285 5284 5283 5281 5280 5278 5277 5276 5274 5273 5272 5270 5269 5268 5267 5267 5267 5267 5266 5265 5265 5265 5265 5265 5265 5265 5265 5266 5266 5266 5266 5266 5267 5266 5266 5266 5266 5266 5265 5265 5264 5264 5263 5262 5260 5259 5258 5256 5255 5254 5254
5370 5367 5363 5359 5356 5352 5348 5344 5340 5336 5332 5328 5325 5322 5318 5315 5313 5310 5308 5305 5303 5302 5300 5298 5297 5296 5294 5293 5292 5290 5289 5288 5287 5285 5284 5283 5283 5282 5280 5279 5278 5277 5276 5275 5273 5272 5271 5269 5268 5267 5266 5266 5265 5265 5265 5264 5264 5264 5264 5264 5265 5265 5265 5265 5265 5265 5265 5265 5265 5265 5265 5264 5264 5263 5263 5262 5262 5261 5259 5258 5257 5255 5254 5253 5252 5251
5368 5365 5361 5358 5354 5350 5346 5342 5338 5334 5330 5327 5323 5320 5317 5314 5312 5309 5307 5305 5303 5301 5299 5298 5296 5294 5293 5292 5290 5289 5288 5287 5285 5284 5283 5283 5282 5280 5279 5278 5277 5276 5275 5274 5273 5272 5271 5270 5268 5267 5266 5265 5265 5264 5264 5264 5264 5264 5264 5264 5264 5264 5264 5264 5264 5264 5264 5264 5264 5263 5263 5262 5261 5261 5260 5260 5259 5258 5257 5256 5254 5253 5251 5250 5249 5248